STARLINK-11310 [DTC] (61212 NORAD) Tracking and Keplerian Element Data

This shows tracking and keplerian element data for the satellite.

Feedback or suggestion? Click here.




ElementValue
Catalog61212
NameSTARLINK-11310 [DTC]
Epoch Orbit477
Epoch Day286.91668981
Epoch Year2024
RAAN184.615
Inclination53.1577
Eccentricity9.76E-05
Argument of Perigee40.916
Mean Anonmoly342.6527
Mean Motion15.76757086
Decay Rate-0.00072973
L11 61212U 24171N 24286.91668981 -.00072973 00000+0 -44513-3 0 9996
L22 61212 53.1577 184.6150 0000976 40.9160 342.6527 15.76757086 4778



Live tracking and technical data element details for STARLINK-11310 [DTC] (NORAD 61212). STARLINK-11310 [DTC] can be tracked NOW for your location showing map with azimuth and elevation plus other details from your city location.







IsCatalogInMostPopularTable: catalog: 61212, numindb: 21
Update: records affected: 1



GetName: 61212 STARLINK-11310 [DTC]

Hit Count: updated at: Wed, 04 Dec 2024 08:59:01 GMT